Zurück zum Katalog

STARLINK-4648

AktivKommunikationVLEO
NORAD 53602·PAYLOAD·🇺🇸 United States

Gestartet Aug 28, 2022 von Cape Canaveral Space Force Station

Loading…

Nächste Überflüge (nächste 24 Stunden)

TLE

AktuellSource: CelesTrak SupGP

Epoche: Sep 14, 2026, 21:58 UTC

1 53602C 22104Q   26257.91576389  .00016485  00000+0  48717-3 0  2575
2 53602  53.1591  99.5057 0001347  80.1940  63.9659 15.34374481    13

Verfolge STARLINK-4648 in Echtzeit mit AllMySat

Download on the App Store